[Iaude] MPEC V172: 2023 VP5 [a=0.90,e=0.13,i=1.2,H=28.1]
    mpec at marsden.cfa.harvard.edu 
    mpec at marsden.cfa.harvard.edu
       
    Fri Nov 10 10:13:01 EST 2023
    
    
  
M.P.E.C. 2023-V172                            Issued 2023 November 10, 15:11 UT
     The Minor Planet Electronic Circulars contain information on unusual
         minor planets, routine data on comets and natural satellites,
         and occasional editorial announcements.  They are published
    on behalf of Division F of the International Astronomical Union by the
          Minor Planet Center, Smithsonian Astrophysical Observatory,
                          Cambridge, MA 02138, U.S.A.
			  
             Prepared using the Tamkin Foundation Computer Network
                              MPC at CFA.HARVARD.EDU
            URL https://www.minorplanetcenter.net/    ISSN 1523-6714
                                    2023 VP5                                    
Observations:
     K23V05P*1C2023 11 09.33716803 27 19.663-12 43 33.38         20.42GVEV172G96
     K23V05P 1C2023 11 09.34235303 27 14.778-12 43 40.80         21.79GVEV172G96
     K23V05P 1C2023 11 09.34753603 27 09.605-12 43 47.96         21.75GVEV172G96
     K23V05P KC2023 11 09.37794003 26 40.720-12 44 28.80         21.09GVEV172I52
     K23V05P KC2023 11 09.38282203 26 36.100-12 44 35.70         21.68GVEV172I52
     K23V05P KC2023 11 09.38769003 26 31.480-12 44 41.80         21.14GVEV172I52
     K23V05P KC2023 11 09.39256003 26 26.930-12 44 48.20         21.09GVEV172I52
     K23V05P 1C2023 11 09.39433003 26 25.206-12 44 49.96         20.93GVEV172G96
     K23V05P 1C2023 11 09.39480403 26 24.767-12 44 50.39         20.34GVEV172G96
     K23V05P 1C2023 11 09.39527703 26 24.364-12 44 51.07         20.19GVEV172G96
     K23V05P KC2023 11 10.26316303 15 08.870-13 03 55.20         20.94GVEV172I52
     K23V05P KC2023 11 10.26777903 15 04.710-13 04 00.90         20.77GVEV172I52
     K23V05P KC2023 11 10.27240103 15 00.600-13 04 07.00         21.21GVEV172I52
     K23V05P KC2023 11 10.54929003 11 21.95 -13 02 05.4          20.9 GVEV172474
     K23V05P KC2023 11 10.55385603 11 18.06 -13 02 10.4          21.2 GVEV172474
     K23V05P KC2023 11 10.55975003 11 12.92 -13 02 16.6          21.4 GVEV172474
Observer details:
474 Mount John Observatory, Lake Tekapo.  Observers A. C. Gilmore, P. M.
    Kilmartin.  Measurer P. M. Kilmartin.  1.0-m f/7.7 reflector + CCD.
G96 Mt. Lemmon Survey.  Observer D. Rankin.  Measurers E. C. Beshore, D. Fay,
    J. B. Fazekas, D. C. Fuls, A. R. Gibbs, A. D. Grauer, H. Groeller, J. K.
    Hogan, R. A. Kowalski, S. M. Larson, G. J. Leonard, D. Rankin, R. L.
    Seaman, F. C. Shelly, K. W. Wierzchos.  1.5-m reflector + 10K CCD.
I52 Steward Observatory, Mt. Lemmon Station.  Observer H. Groeller.  Measurers
    E. C. Beshore, D. Fay, J. B. Fazekas, D. C. Fuls, A. R. Gibbs, A. D.
    Grauer, H. Groeller, J. K. Hogan, R. A. Kowalski, S. M. Larson, G. J.
    Leonard, D. Rankin, R. L. Seaman, F. C. Shelly, K. W. Wierzchos.  1.0-m
    prime focus + CCD.
Orbital elements:
2023 VP5                                                 Earth MOID = 0.0070 AU
Epoch 2023 Sept. 13.0 TT = JDT 2460200.5                Veres                   
M  92.82507              (2000.0)            P               Q                  
n   1.15166550     Peri.   52.64645     -0.45576149     +0.89009452             
a   0.9014019      Node   190.24151     -0.82297934     -0.42294438             
e   0.1286121      Incl.    1.17117     -0.33909655     -0.16985227             
P   0.86           H   28.11          G   0.15           U   6                  
Residuals in seconds of arc
231109 G96  0.5-  0.1-    231109 I52  0.5+  0.3-    231110 I52  0.4+  0.1-
231109 G96  0.9+  0.1-    231109 G96  0.3-  0.2+    231110 474  0.2-  0.2+
231109 G96 (2.1-  0.0 )   231109 G96  0.2-  0.3+    231110 474  0.5+  0.0
231109 I52  0.2-  0.3+    231109 G96  0.4+  0.2+    231110 474  0.3-  0.2-
231109 I52  0.0   0.3-    231110 I52  0.1-  0.1-
231109 I52  0.2-  0.1-    231110 I52  0.3-  0.2+
Ephemeris:
2023 VP5                 a,e,i = 0.90, 0.13, 1                   q = 0.7855
Date    TT    R. A. (2000) Decl.     Delta      r    Elong.  Phase     V
2023 10 11    09 32 47.0 +09 50 19   0.03839 0.9770    54.9   123.3    26.1
...
2023 10 26    07 22 49.4 +01 13 59   0.02245 0.9981    99.2    79.6    22.6
...
2023 11 03    05 10 39.4 -07 54 10   0.02011 1.0063   134.2    45.0    21.4
...
2023 11 09    03 32 04.3 -12 30 29   0.02336 1.0109   149.4    29.9    21.3
2023 11 10    03 18 28.7 -12 54 21   0.02428 1.0116   149.8    29.5    21.3
2023 11 11    03 05 51.3 -13 12 47   0.02527 1.0121   149.6    29.7    21.4
...
2023 11 17    02 08 52.0 -13 41 42   0.03262 1.0149   142.3    36.6    22.2
...
2023 11 25    01 28 38.9 -12 38 16   0.04449 1.0165   130.1    48.0    23.2
...
2023 12 10    01 02 16.0 -09 40 29   0.06832 1.0129   112.3    64.1    24.6
M. P. C. Staff               (C) Copyright 2023 MPC           M.P.E.C. 2023-V172
    
    
More information about the Iaude
mailing list